Retour au catalogue

STARLINK-34387

ActifCommunicationsVLEO
NORAD 64315·PAYLOAD·🇺🇸 United States

Lancé Jun 8, 2025 depuis Vandenberg Space Force Base

Loading…

Prochains Passages (prochaines 24 heures)

TLE

FraisSource: CelesTrak SupGP

Époque: Sep 14, 2026, 20:39 UTC

1 64315C 25123AA  26257.86090278  .00010215  00000+0  35539-3 0  2577
2 64315  70.0003  75.7859 0003487 271.8085 218.5445 15.29568738    19

Suivez STARLINK-34387 en temps réel avec AllMySat

Download on the App Store